Location: Falniów
(50.3639°N, 19.9642°E)
Time: 08:16:06
(UTC+00:00)

Cosmos 1943 Rocket - Pass Details

Date: 18 January 2026
Orbit: 811 x 842 km, 71.0° (Epoch: 16 February)

Event Time Altitude Azimuth Distance (km) Brightness Sun altitude
Exits shadow 02:43:55 16° 141° (SE) 2,008 4.4 -35.7°
Maximum altitude 02:46:42 23° 102° (ESE) 1,653 4.2 -35.3°
Drops below altitude 10° 02:50:57 10° 52° (NE) 2,408 5.2 -34.6°
Sets 02:53:48 0° 38° (NE) 3,346 5.9 -34.2°
